Preview of NWS' New Version of Forecast
This preview is not operational and should not be used for support decisions.

Regional Weather Roundup (RWR)

Issued by National Weather Service (NWS)

                            
000
ASUS43 KTOP 191159
RWRKS 

WEATHER ROUNDUP FOR KANSAS
NATIONAL WEATHER SERVICE GOODLAND KS
700 AM CDT FRI APR 19 2019

NOTE:  "FAIR" INDICATES FEW OR NO CLOUDS BELOW 12,000 FEET WITH NO
SIGNIFICANT WEATHER AND/OR OBSTRUCTIONS TO VISIBILITY.

KSZ001>006-013>018-027>032-041>047-191300-
NORTHWEST KANSAS
  
CITY           SKY/WX    TMP DP  RH WIND       PRES   REMARKS
GOODLAND       PTCLDY    31  26  82 W10       30.18S WCI  22          
6HR MIN TEMP:  29; 6HR MAX TEMP:  35;                                

HAYS           CLEAR     33  31  92 NW9       30.16R                  
HILL CITY      CLEAR     35  31  85 NW9       30.17R                  
6HR MIN TEMP:  35; 6HR MAX TEMP:  41;                                

RUSSELL        CLEAR     36  32  85 NW12      30.13R WCI  28          
6HR MIN TEMP:  32; 6HR MAX TEMP:  41;                                

$$

KSZ061>065-074>080-084>089-191300-
SOUTHWEST KANSAS
  
CITY           SKY/WX    TMP DP  RH WIND       PRES   REMARKS
DODGE CITY     CLEAR     33  27  78 NW9       30.16R                  
6HR MIN TEMP:  32; 6HR MAX TEMP:  43;                                

GARDEN CITY    CLEAR     34  29  82 NW13      30.17S WCI  25          
6HR MIN TEMP:  33; 6HR MAX TEMP:  39;                                

GREAT BEND       N/A     33  31  92 NW12      30.14R WCI  24          
LIBERAL        CLEAR     34  29  82 NW10      30.20S WCI  26          
$$

KSZ066>073-081>083-090>101-191300-
SOUTHEAST KANSAS
  
CITY           SKY/WX    TMP DP  RH WIND       PRES   REMARKS
CHANUTE        CLEAR     46  39  76 NW9       30.01R                  
6HR MIN TEMP:  46; 6HR MAX TEMP:  54; 6HR PCP: TRACE;                

COFFEYVILLE    CLEAR     46  40  79 NW14      30.00R                  
6HR MIN TEMP:  46; 6HR MAX TEMP:  52; 6HR PCP: TRACE;                

HUTCHINSON     CLEAR     38  33  82 NW8       30.10R                  
6HR MIN TEMP:  38; 6HR MAX TEMP:  47;                                

MEDICINE LODGE   N/A     38  34  85 NW7       30.12R                  
NEWTON         CLEAR     39  35  86 NW14      30.08R WCI  31          
PARSONS          N/A     45  40  82 N9        30.01R                  
6HR MIN TEMP:  45; 6HR MAX TEMP:  51; 6HR PCP: TRACE;                

WICHITA INTL   CLEAR     43  35  73 N14       30.08R                  
6HR MIN TEMP:  43; 6HR MAX TEMP:  51;                                

WICHITA JABRA  CLEAR     41  36  82 NW13      30.07R                  
6HR MIN TEMP:  41; 6HR MAX TEMP:  48;                                

WICHITA MCCONL CLEAR     43  36  76 N13       30.07R                  
WINFIELD       CLEAR     40  37  89 NW6       30.08R                  
6HR MIN TEMP:  40; 6HR MAX TEMP:  49;                                

$$

KSZ007>012-019>026-033>040-048>060-102>105-191300-
NORTHEAST KANSAS
  
CITY           SKY/WX    TMP DP  RH WIND       PRES   REMARKS
CONCORDIA        N/A    N/A N/A N/A MISG      30.11R                  
EMPORIA        CLEAR     42  38  85 NW12      30.04R                  
6HR MIN TEMP:  41; 6HR MAX TEMP:  51;                                

LAWRENCE       CLEAR     41  37  86 NW9       30.03R                  
6HR MIN TEMP:  41; 6HR MAX TEMP:  51;                                

MANHATTAN      CLEAR     42  35  76 VRB3      30.08R                  
6HR MIN TEMP:  42; 6HR MAX TEMP:  49;                                

OLATHE IND     CLEAR     43  39  86 NW14      30.01R                  
6HR MIN TEMP:  42; 6HR MAX TEMP:  50;                                

OLATHE EXE     CLEAR     43  37  79 N10       29.99R                  
6HR MIN TEMP:  42; 6HR MAX TEMP:  50;                                

SALINA         CLEAR     38  33  82 NW10      30.11R WCI  31          
6HR MIN TEMP:  37; 6HR MAX TEMP:  45;                                

TOPEKA BILLARD PTCLDY    42  37  82 NW9       30.04R                  
6HR MIN TEMP:  42; 6HR MAX TEMP:  51;                                

TOPEKA FORBES  PTCLDY    42  37  82 NW8       30.03R                  
6HR MIN TEMP:  41; 6HR MAX TEMP:  52;                                

$$